GEFTB EGHF-EGMD

Flight info

Callsign GEFTB
Flight time 0h 50m
Altitude 7000
Route GIVUN SFD
Aircraft DA42/L-SBDGRY/S

Departure

Time 2026-04-22 17:47
Airport Solent Airport (EGHF)

Arrival

Time 2026-04-22 18:38
Airport Lydd London Ashford Airport (EGMD)
Time Latitude Longitude Altitude Speed Heading
2026-04-22 17:46 50.81207 -1.21240 23 ft 0 kts 45°
2026-04-22 17:46 50.81355 -1.21000 26 ft 70 kts 44°
2026-04-22 17:47 50.81765 -1.20327 183 ft 92 kts 46°
2026-04-22 17:47 50.82214 -1.19616 526 ft 93 kts 41°
2026-04-22 17:47 50.82775 -1.19206 887 ft 92 kts 357°
2026-04-22 17:47 50.83293 -1.19745 1205 ft 95 kts 295°
2026-04-22 17:48 50.83326 -1.20421 1399 ft 99 kts 249°
2026-04-22 17:48 50.82703 -1.21521 1611 ft 120 kts 222°
2026-04-22 17:48 50.82056 -1.22550 1483 ft 147 kts 226°
2026-04-22 17:48 50.81392 -1.23636 1556 ft 148 kts 226°
2026-04-22 17:49 50.80733 -1.24713 1693 ft 146 kts 226°
2026-04-22 17:49 50.80034 -1.25675 1821 ft 145 kts 205°
2026-04-22 17:49 50.79097 -1.25719 1960 ft 145 kts 160°
2026-04-22 17:49 50.78392 -1.24770 1997 ft 150 kts 120°
2026-04-22 17:50 50.78007 -1.23329 2000 ft 149 kts 111°
2026-04-22 17:50 50.77685 -1.21943 1996 ft 143 kts 109°
2026-04-22 17:50 50.77375 -1.20575 1996 ft 140 kts 109°
2026-04-22 17:50 50.77077 -1.19255 1997 ft 137 kts 109°
2026-04-22 17:51 50.76782 -1.17951 1998 ft 136 kts 109°
2026-04-22 17:51 50.76491 -1.16664 1999 ft 136 kts 109°
2026-04-22 17:51 50.76198 -1.15368 1999 ft 135 kts 109°
2026-04-22 17:51 50.75904 -1.14068 1999 ft 135 kts 109°
2026-04-22 17:52 50.75614 -1.12786 1999 ft 135 kts 109°
2026-04-22 17:52 50.75321 -1.11491 1999 ft 135 kts 109°
2026-04-22 17:52 50.75028 -1.10198 1999 ft 135 kts 109°
2026-04-22 17:52 50.74742 -1.08934 1999 ft 135 kts 109°
2026-04-22 17:53 50.74454 -1.07664 1999 ft 135 kts 109°
2026-04-22 17:53 50.74168 -1.06405 1999 ft 135 kts 109°
2026-04-22 17:53 50.73884 -1.05151 1999 ft 135 kts 109°
2026-04-22 17:53 50.73595 -1.03879 1999 ft 135 kts 109°
2026-04-22 17:54 50.73306 -1.02600 1999 ft 135 kts 109°
2026-04-22 17:54 50.73021 -1.01344 1999 ft 135 kts 109°
2026-04-22 17:54 50.72731 -1.00071 1999 ft 135 kts 109°
2026-04-22 17:54 50.72452 -0.98843 1999 ft 135 kts 109°
2026-04-22 17:55 50.72271 -0.98046 1999 ft 135 kts 109°
2026-04-22 17:55 50.71900 -0.96411 1999 ft 135 kts 109°
2026-04-22 17:55 50.71614 -0.95156 1999 ft 135 kts 109°
2026-04-22 17:55 50.71330 -0.93906 1999 ft 135 kts 109°
2026-04-22 17:56 50.71043 -0.92644 1999 ft 135 kts 109°
2026-04-22 17:56 50.70758 -0.91393 1999 ft 135 kts 109°
2026-04-22 17:56 50.70604 -0.90175 2050 ft 130 kts 84°
2026-04-22 17:56 50.70777 -0.88971 2264 ft 131 kts 72°
2026-04-22 17:57 50.71035 -0.87803 2527 ft 129 kts 68°
2026-04-22 17:57 50.71331 -0.86671 2786 ft 129 kts 66°
2026-04-22 17:57 50.71649 -0.85547 3048 ft 128 kts 65°
2026-04-22 17:57 50.71977 -0.84433 3309 ft 128 kts 64°
2026-04-22 17:58 50.72310 -0.83332 3569 ft 128 kts 64°
2026-04-22 17:58 50.72650 -0.82217 3833 ft 128 kts 64°
2026-04-22 17:58 50.72989 -0.81111 4095 ft 129 kts 63°
2026-04-22 17:58 50.73262 -0.79970 4350 ft 129 kts 81°
2026-04-22 17:59 50.73339 -0.78748 4614 ft 129 kts 85°
2026-04-22 17:59 50.73386 -0.77526 4873 ft 129 kts 86°
2026-04-22 17:59 50.73430 -0.76304 5131 ft 129 kts 86°
2026-04-22 17:59 50.73450 -0.75680 5263 ft 129 kts 86°
2026-04-22 18:00 50.73475 -0.74923 5423 ft 129 kts 86°
2026-04-22 18:00 50.73516 -0.73689 5684 ft 129 kts 86°
2026-04-22 18:00 50.73539 -0.73014 5828 ft 129 kts 86°
2026-04-22 18:00 50.73568 -0.72144 6012 ft 130 kts 86°
2026-04-22 18:01 50.73608 -0.70922 6271 ft 130 kts 86°
2026-04-22 18:01 50.73649 -0.69690 6531 ft 130 kts 86°
2026-04-22 18:01 50.73691 -0.68435 6796 ft 130 kts 86°
2026-04-22 18:01 50.73729 -0.67278 6961 ft 136 kts 86°
2026-04-22 18:02 50.73748 -0.66695 6987 ft 142 kts 86°
2026-04-22 18:02 50.73761 -0.66321 6995 ft 145 kts 86°
2026-04-22 18:02 50.73796 -0.65250 7004 ft 152 kts 86°
2026-04-22 18:02 50.73835 -0.64039 7005 ft 158 kts 86°
2026-04-22 18:03 50.73856 -0.63370 7004 ft 160 kts 86°
2026-04-22 18:03 50.73891 -0.62282 7003 ft 162 kts 86°
2026-04-22 18:03 50.73915 -0.61523 7002 ft 164 kts 86°
2026-04-22 18:03 50.73946 -0.60535 7002 ft 165 kts 86°
2026-04-22 18:04 50.73982 -0.59426 7001 ft 166 kts 86°
2026-04-22 18:04 50.74008 -0.58672 7001 ft 166 kts 86°
2026-04-22 18:04 50.74039 -0.58046 7005 ft 166 kts 84°
2026-04-22 18:04 50.74143 -0.56935 7013 ft 166 kts 78°
2026-04-22 18:06 50.74244 -0.56301 7015 ft 167 kts 73°
2026-04-22 18:06 50.74451 -0.55455 7008 ft 167 kts 64°
2026-04-22 18:06 50.74936 -0.54283 6987 ft 168 kts 53°
2026-04-22 18:07 50.75158 -0.53553 6981 ft 168 kts 76°
2026-04-22 18:07 50.75196 -0.52983 6983 ft 168 kts 90°
2026-04-22 18:07 50.75118 -0.51561 6984 ft 168 kts 91°
2026-04-22 18:07 50.75105 -0.50755 6983 ft 168 kts 91°
2026-04-22 18:08 50.75100 -0.49857 6982 ft 168 kts 89°
2026-04-22 18:08 50.75127 -0.48630 6981 ft 168 kts 86°
2026-04-22 18:08 50.75158 -0.47777 6981 ft 168 kts 85°
2026-04-22 18:08 50.75194 -0.46981 6981 ft 168 kts 85°
2026-04-22 18:09 50.75252 -0.45875 6981 ft 168 kts 84°
2026-04-22 18:11 50.75304 -0.44973 6981 ft 168 kts 84°
2026-04-22 18:11 50.75316 -0.44764 6981 ft 168 kts 84°
2026-04-22 18:12 50.75342 -0.44322 6981 ft 168 kts 84°
2026-04-22 18:12 50.75389 -0.43524 6981 ft 168 kts 84°
2026-04-22 18:12 50.75425 -0.42934 6981 ft 168 kts 84°
2026-04-22 18:13 50.75470 -0.42197 6980 ft 168 kts 84°
2026-04-22 18:13 50.75520 -0.41368 6980 ft 168 kts 84°
2026-04-22 18:13 50.75554 -0.40809 6980 ft 168 kts 84°
2026-04-22 18:13 50.75618 -0.39772 6980 ft 168 kts 84°
2026-04-22 18:14 50.75703 -0.38366 6980 ft 168 kts 84°
2026-04-22 18:14 50.75747 -0.37650 6980 ft 168 kts 84°
2026-04-22 18:14 50.75845 -0.36045 6980 ft 168 kts 84°
2026-04-22 18:14 50.75941 -0.34450 6980 ft 168 kts 84°
2026-04-22 18:15 50.76038 -0.32848 6980 ft 168 kts 84°
2026-04-22 18:15 50.76135 -0.31249 6980 ft 168 kts 84°
2026-04-22 18:15 50.76231 -0.29656 6980 ft 168 kts 84°
2026-04-22 18:15 50.76327 -0.28061 6980 ft 168 kts 84°
2026-04-22 18:16 50.76421 -0.26487 6980 ft 168 kts 84°
2026-04-22 18:16 50.76518 -0.24864 6980 ft 168 kts 84°
2026-04-22 18:16 50.76615 -0.23228 6980 ft 168 kts 84°
2026-04-22 18:16 50.76713 -0.21576 6980 ft 168 kts 84°
2026-04-22 18:17 50.76815 -0.19909 6980 ft 168 kts 84°
2026-04-22 18:17 50.76911 -0.18293 6980 ft 168 kts 84°
2026-04-22 18:17 50.77007 -0.16687 6980 ft 168 kts 84°
2026-04-22 18:17 50.77102 -0.15074 6980 ft 168 kts 84°
2026-04-22 18:18 50.77199 -0.13431 6980 ft 168 kts 84°
2026-04-22 18:18 50.77296 -0.11789 6980 ft 168 kts 84°
2026-04-22 18:18 50.77392 -0.10142 6980 ft 168 kts 84°
2026-04-22 18:18 50.77489 -0.08485 6980 ft 168 kts 84°
2026-04-22 18:19 50.77585 -0.06830 6980 ft 168 kts 84°
2026-04-22 18:19 50.77681 -0.05189 6980 ft 168 kts 84°
2026-04-22 18:19 50.77777 -0.03535 6980 ft 168 kts 84°
2026-04-22 18:19 50.77874 -0.01859 6980 ft 168 kts 84°
2026-04-22 18:20 50.77971 -0.00168 6980 ft 168 kts 84°
2026-04-22 18:20 50.78069 0.01538 6980 ft 168 kts 84°
2026-04-22 18:20 50.78168 0.03259 6980 ft 168 kts 84°
2026-04-22 18:20 50.78267 0.05000 6980 ft 168 kts 84°
2026-04-22 18:21 50.78370 0.06793 6980 ft 168 kts 84°
2026-04-22 18:21 50.78473 0.08601 6980 ft 168 kts 84°
2026-04-22 18:21 50.78571 0.10340 6980 ft 168 kts 84°
2026-04-22 18:21 50.78671 0.12109 6980 ft 168 kts 84°
2026-04-22 18:22 50.78772 0.13892 6980 ft 168 kts 84°
2026-04-22 18:22 50.78871 0.15652 6980 ft 168 kts 84°
2026-04-22 18:22 50.78971 0.17427 6980 ft 168 kts 84°
2026-04-22 18:22 50.79071 0.19223 6980 ft 168 kts 84°
2026-04-22 18:23 50.79171 0.21026 6980 ft 168 kts 84°
2026-04-22 18:23 50.79268 0.22816 6980 ft 168 kts 85°
2026-04-22 18:23 50.79364 0.24577 6980 ft 168 kts 84°
2026-04-22 18:24 50.79549 0.27978 6980 ft 168 kts 84°
2026-04-22 18:24 50.79642 0.29664 6980 ft 168 kts 84°
2026-04-22 18:24 50.79831 0.33109 6980 ft 168 kts 84°
2026-04-22 18:25 50.79927 0.34877 6900 ft 172 kts 84°
2026-04-22 18:25 50.80024 0.36661 6809 ft 175 kts 84°
2026-04-22 18:25 50.80123 0.38482 6716 ft 176 kts 84°
2026-04-22 18:26 50.80321 0.42150 6523 ft 177 kts 84°
2026-04-22 18:26 50.80416 0.43932 6314 ft 162 kts 84°
2026-04-22 18:26 50.80503 0.45533 6104 ft 146 kts 84°
2026-04-22 18:26 50.80582 0.46991 5894 ft 133 kts 84°
2026-04-22 18:27 50.80654 0.48320 5691 ft 125 kts 84°
2026-04-22 18:27 50.80723 0.49593 5486 ft 118 kts 84°
2026-04-22 18:27 50.80788 0.50796 5286 ft 113 kts 84°
2026-04-22 18:27 50.80851 0.51991 4981 ft 119 kts 84°
2026-04-22 18:28 50.80918 0.53243 4659 ft 123 kts 84°
2026-04-22 18:28 50.80986 0.54532 4333 ft 126 kts 84°
2026-04-22 18:28 50.81058 0.55840 4006 ft 128 kts 84°
2026-04-22 18:28 50.81130 0.57153 3680 ft 129 kts 84°
2026-04-22 18:29 50.81199 0.58464 3356 ft 129 kts 84°
2026-04-22 18:29 50.81268 0.59775 3031 ft 130 kts 84°
2026-04-22 18:29 50.81338 0.61101 2703 ft 130 kts 84°
2026-04-22 18:29 50.81406 0.62406 2380 ft 129 kts 84°
2026-04-22 18:30 50.81475 0.63729 2218 ft 134 kts 84°
2026-04-22 18:30 50.81630 0.66755 2188 ft 155 kts 85°
2026-04-22 18:30 50.81709 0.68331 2184 ft 159 kts 85°
2026-04-22 18:31 50.81791 0.69958 2182 ft 160 kts 85°
2026-04-22 18:31 50.81873 0.71579 2181 ft 161 kts 85°
2026-04-22 18:31 50.81956 0.73218 2181 ft 161 kts 85°
2026-04-22 18:31 50.82039 0.74842 2181 ft 162 kts 85°
2026-04-22 18:32 50.82120 0.76459 2180 ft 159 kts 85°
2026-04-22 18:32 50.82222 0.77882 2156 ft 129 kts 71°
2026-04-22 18:32 50.82639 0.78822 2126 ft 112 kts 44°
2026-04-22 18:32 50.83209 0.79586 2000 ft 123 kts 34°
2026-04-22 18:33 50.83872 0.80280 1888 ft 129 kts 32°
2026-04-22 18:33 50.84576 0.80998 1768 ft 132 kts 37°
2026-04-22 18:33 50.85213 0.81877 1605 ft 138 kts 43°
2026-04-22 18:33 50.85926 0.82841 1308 ft 147 kts 35°
2026-04-22 18:34 50.86667 0.83617 1246 ft 139 kts 31°
2026-04-22 18:34 50.87400 0.84306 1170 ft 134 kts 31°
2026-04-22 18:34 50.88096 0.85000 1142 ft 131 kts 31°
2026-04-22 18:34 50.88768 0.85649 1240 ft 116 kts 35°
2026-04-22 18:35 50.89371 0.86335 1122 ft 120 kts 36°
2026-04-22 18:35 50.89902 0.87014 1030 ft 102 kts 40°
2026-04-22 18:35 50.90390 0.87680 818 ft 104 kts 39°
2026-04-22 18:35 50.90891 0.88304 688 ft 98 kts 37°
2026-04-22 18:36 50.91338 0.88851 640 ft 91 kts 39°
2026-04-22 18:36 50.91803 0.89410 537 ft 91 kts 37°
2026-04-22 18:36 50.92291 0.89977 416 ft 93 kts 36°
2026-04-22 18:36 50.92789 0.90577 391 ft 87 kts 43°
2026-04-22 18:37 50.93254 0.91288 509 ft 96 kts 40°
2026-04-22 18:37 50.93796 0.91950 439 ft 106 kts 33°
2026-04-22 18:37 50.94178 0.92353 363 ft 96 kts 34°
2026-04-22 18:37 50.94795 0.93061 112 ft 82 kts 34°
2026-04-22 18:38 50.95244 0.93533 16 ft 79 kts 32°
2026-04-22 18:38 50.95562 0.93839 10 ft 24 kts 22°
2026-04-22 18:38 50.95519 0.93798 10 ft 28 kts 249°
2026-04-22 18:39 50.95640 0.93573 10 ft 10 kts 317°
2026-04-22 18:39 50.95661 0.93543 9 ft 0 kts 319°